Regional Weather Roundup
Issued by NWS Cleveland, OH

Home | Current Version | Previous Version | Text Only | Print | Product List | Glossary Off
Versions: 1 2 3 4 5 6 7 8 9 10 11 12 13 14 15 16 17 18 19 20 21 22 23 24 25 26 27 28 29 30 31 32 33 34 35 36 37 38 39 40 41 42 43 44 45 46 47 48 49 50

000
ASUS41 KCLE 280400
RWRCLE
OHIO REGIONAL WEATHER ROUNDUP
NATIONAL WEATHER SERVICE WILMINGTON, OH
1100 PM EST TUE JAN 27 2015

NOTE: "FAIR" INDICATES FEW OR NO CLOUDS BELOW 12,000 FEET WITH NO
SIGNIFICANT WEATHER AND/OR OBSTRUCTIONS TO VISIBILITY.

OHZ001>008-015>018-024>027-034-035-043-044-280500-
   NORTHWEST OHIO

CITY           SKY/WX    TMP DP  RH WIND       PRES   REMARKS
DEFIANCE       PTCLDY    14   8  77 NW5       30.24S WCI   6
FINDLAY        PTCLDY     9   5  84 W3        30.20S
TOLEDO EXPRESS CLEAR     16   9  74 N5        30.22S WCI   9
TOLEDO EXEC    CLEAR     19  10  68 N6        30.23S WCI  11
LIMA           FAIR      12   7  80 W5        30.21R HAZE    WCI   4
$$

OHZ009>014-019>023-028>033-038-089-280500-
   NORTHEAST OHIO

CITY           SKY/WX    TMP DP  RH WIND       PRES   REMARKS
CLE-HOPKINS    MOCLDY    19  13  77 N6        30.20S WCI  11
CLE-LAKEFRONT  CLEAR     14  10  84 CALM      30.19R
CUY CO. ARPT   PTCLDY    18  16  93 N7        30.17R WCI   8
LORAIN-ELYRIA  PTCLDY    16  11  80 N7        30.18S WCI   6
ASHTABULA      PTCLDY     9   6  88 NW3       30.14R
AKRON-CANTON   CLOUDY    18  12  77 N9        30.13S WCI   7
WOOSTER        NOT AVBL
MANSFIELD      MOCLDY    11   8  88 W5        30.16R WCI   3
YOUNGSTOWN     FLURRIES  12   8  84 W5        30.12R WCI   4
$$

OHZ042-051>053-060>062-070>072-077>081-280500-
  SOUTHWEST OHIO

CITY           SKY/WX    TMP DP  RH WIND       PRES   REMARKS
CINC-COVINGTON NOT AVBL
CINC-LUNKEN    CLEAR     19  12  74 CALM      30.28S
HAMILTON       CLEAR     12  10  92 CALM      30.27R
DAYTON         NOT AVBL
WRIGHT-PAT AFB NOT AVBL
DAYTON GENERAL CLEAR     16  12  84 W3        30.22R
WILMINGTON     PTCLDY    15   9  76 NW5       30.21S WCI   8
$$

OHZ036-037-039>041-045>050-054>059-063>069-073>076-082>088-280500-
  CENTRAL AND SOUTHEAST OHIO

CITY           SKY/WX    TMP DP  RH WIND       PRES   REMARKS
COLUMBUS       PTCLDY    13   8  81 NW5       30.21R WCI   5
OSU AIRPORT    PTCLDY    12   9  87 W5        30.20R WCI   4
BOLTON FIELD   NOT AVBL
RICKENBACK AFB NOT AVBL
NEWARK         PTCLDY     9   5  84 CALM      30.19R
MARION         MOCLDY     6   2  83 CALM      30.20R FOG
LANCASTER      CLEAR      7   4  87 CALM      30.21R
ZANESVILLE     CLOUDY    15   8  73 W7        30.18R WCI   5
NEW PHILLY     CLOUDY    17  10  74 NW5       30.18R WCI  10
$$


USA.gov is the U.S. government's official web portal to all federal, state and local government web resources and services.